"2016-05-23 00:00:00",1657371,3.031,20.53,2.422,0.251,19.17,106.7642,16.59,17.6,45.71,0,110.7,13.14,17.40,342.5
"2016-05-23 00:00:30",1657372,2.903,19.24,1.974,0.262,19.24,106.7638,16.59,17.61,45.61,0,110.7,13.14,17.40,341.2
"2016-05-23 00:01:00",1657373,3.015,19.06,2.247,0.227,19.28,106.7654,16.59,17.63,45.66,0,110.7,13.14,17.40,341.1
"2016-05-23 00:01:30",1657374,3.818,23.46,1.215,0.29,19.27,106.764,16.59,17.63,45.71,0,110.7,13.14,17.40,345.5
"2016-05-23 00:02:00",1657375,3.798,23.22,1.659,0.309,19.33,106.7821,16.64,17.64,45.61,0,110.7,13.14,17.45,345.2
"2016-05-23 00:02:30",1657376,4.025,23.77,0.964,0.191,19.32,106.7922,16.66,17.66,45.71,0,110.7,13.14,17.47,345.8
"2016-05-23 00:03:00",1657377,3.693,28.36,1.436,0.254,19.33,106.7985,16.68,17.67,45.72,0,110.7,13.14,17.49,350.4
"2016-05-23 00:03:30",1657378,4.05,26.72,2.014,0.374,19.32,106.7967,16.67,17.67,45.52,0,110.7,13.14,17.48,348.7
"2016-05-23 00:04:00",1657379,4.029,26.08,1.46,0.213,19.4,106.7994,16.68,17.68,45.77,0,110.7,13.14,17.49,348.1
"2016-05-23 00:04:30",1657380,4.107,27.14,1.899,0.312,19.44,106.8,16.68,17.71,45.51,0,110.7,13.14,17.49,349.1
"2016-05-23 00:05:00",1657381,3.975,27.24,1.762,0.281,19.51,106.8065,16.7,17.71,45.13,0,110.7,13.14,17.51,349.2
"2016-05-23 00:05:30",1657382,4.398,26.23,1.836,0.476,19.56,106.8175,16.73,17.73,45.02,0,110.7,13.14,17.54,348.2
"2016-05-23 00:06:00",1657383,4.134,29.04,1.519,0.284,19.55,106.8239,16.74,17.75,44.76,0,110.7,13.14,17.55,351.0
"2016-05-23 00:06:30",1657384,3.924,30.57,1.655,0.223,19.58,106.8259,16.75,17.74,44.58,0,110.7,13.14,17.56,352.6
"2016-05-23 00:07:00",1657385,4.267,29.68,2.145,0.304,19.61,106.825,16.75,17.76,44.47,0,110.7,13.14,17.56,351.7
"2016-05-23 00:07:30",1657386,4.611,27.34,1.932,0.26,19.62,106.8239,16.74,17.75,44.4,0,110.7,13.14,17.55,349.3
"2016-05-23 00:08:00",1657387,4.518,28.99,1.536,0.319,19.61,106.8254,16.75,17.75,43.87,0,110.7,13.14,17.56,351.0
"2016-05-23 00:08:30",1657388,4.434,28.03,1.186,0.335,19.6,106.8243,16.74,17.74,43.42,0,110.7,13.14,17.56,350.0
"2016-05-23 00:09:00",1657389,4.148,28.68,1.817,0.327,19.61,106.8209,16.74,17.75,43.29,0,110.7,13.14,17.55,350.7
"2016-05-23 00:09:30",1657390,3.66,30.2,1.091,0.147,19.6,106.8119,16.71,17.75,43.25,0,110.7,13.14,17.52,352.2
"2016-05-23 00:10:00",1657391,3.676,31.78,1.391,0.284,19.59,106.8049,16.7,17.75,43.17,0,110.7,13.14,17.51,353.8
"2016-05-23 00:10:30",1657392,3.796,30.2,1.477,0.208,19.6,106.8003,16.68,17.74,43.2,0,110.7,13.14,17.49,352.2
"2016-05-23 00:11:00",1657393,4.014,29.12,1.287,0.246,19.61,106.8013,16.69,17.75,43.55,0,110.7,13.14,17.50,351.1
"2016-05-23 00:11:30",1657394,3.588,30.68,1.82,0.276,19.59,106.8022,16.69,17.73,43.5,0,110.7,13.14,17.50,352.7
"2016-05-23 00:12:00",1657395,3.649,29.93,1.796,0.251,19.6,106.8016,16.69,17.74,43.44,0,110.7,13.14,17.50,351.9
"2016-05-23 00:12:30",1657396,3.625,33.35,1.83,0.195,19.59,106.8019,16.69,17.74,44.07,0,110.7,13.14,17.50,355.4
"2016-05-23 00:13:00",1657397,3.784,29.37,1.575,0.197,19.63,106.8016,16.69,17.72,43.95,0,110.7,13.14,17.50,351.4
"2016-05-23 00:13:30",1657398,3.682,30.36,1.055,0.106,19.64,106.8013,16.69,17.73,43.55,0,110.7,13.14,17.50,352.4
"2016-05-23 00:14:00",1657399,3.94,29.28,1.594,0.256,19.63,106.8016,16.69,17.71,43.5,0,110.7,13.14,17.50,351.3
"2016-05-23 00:14:30",1657400,3.82,29.99,1.349,0.202,19.6,106.8009,16.69,17.72,43.83,0,110.7,13.14,17.50,352.0
"2016-05-23 00:15:00",1657401,4.044,30.12,1.54,0.259,19.62,106.8022,16.69,17.71,44.05,0,110.7,13.14,17.50,352.1
"2016-05-23 00:15:30",1657402,4.226,28.7,1.383,0.198,19.63,106.8016,16.69,17.69,44.07,0,110.7,13.14,17.50,350.7
"2016-05-23 00:16:00",1657403,4.328,28.38,1.788,0.262,19.6,106.8022,16.69,17.69,43.98,0,110.7,13.14,17.50,350.4
"2016-05-23 00:16:30",1657404,4.447,27.02,1.512,0.302,19.58,106.8019,16.69,17.69,43.86,0,110.7,13.14,17.50,349.0
"2016-05-23 00:17:00",1657405,4.532,26.98,1.374,0.285,19.39,106.8016,16.69,17.69,43.95,0,110.7,13.14,17.50,349.0
"2016-05-23 00:17:30",1657406,4.975,24.5,0.978,0.175,19.34,106.8016,16.69,17.7,44.01,0,110.7,13.14,17.50,346.5
"2016-05-23 00:18:00",1657407,5.185,24.51,0.626,0.211,19.25,106.8022,16.69,17.69,44.02,0,110.7,13.14,17.50,346.5
"2016-05-23 00:18:30",1657408,5.191,25.61,1.404,0.284,19.07,106.8016,16.69,17.7,44.54,0,110.7,13.14,17.50,347.6
"2016-05-23 00:19:00",1657409,5.147,25.01,1.368,0.308,18.99,106.8013,16.69,17.71,45.36,0,110.7,13.14,17.50,347.0
"2016-05-23 00:19:30",1657410,5.054,25.69,1.474,0.333,18.93,106.8009,16.68,17.72,45.2,0,110.7,13.14,17.50,347.7
"2016-05-23 00:20:00",1657411,5.27,24.26,0.822,0.273,18.99,106.8197,16.73,17.73,45.14,0,110.7,13.14,17.54,346.3
"2016-05-23 00:20:30",1657412,5.329,25.19,0.961,0.196,18.94,106.8318,16.76,17.73,45.27,0,110.7,13.14,17.57,347.2
"2016-05-23 00:21:00",1657413,4.888,28.51,1.131,0.249,18.9,106.8281,16.75,17.75,45.5,0,110.7,13.14,17.57,350.5
"2016-05-23 00:21:30",1657414,5.036,27.34,1.174,0.286,18.97,106.843,16.79,17.76,45.62,0,110.7,13.14,17.60,349.3
"2016-05-23 00:22:00",1657415,5.11,25.18,1.698,0.198,18.94,106.8604,16.84,17.78,45.19,0,110.7,13.14,17.65,347.2
"2016-05-23 00:22:30",1657416,5.367,24.3,0.991,0.162,19.01,106.8607,16.84,17.82,43.79,0,110.7,13.14,17.65,346.3
"2016-05-23 00:23:00",1657417,5.298,25.68,1.289,0.243,18.99,106.879,16.89,17.83,43.59,0,110.7,13.14,17.70,347.7
"2016-05-23 00:23:30",1657418,5.224,26.5,0.986,0.263,18.98,106.8942,16.92,17.87,45.01,0,110.7,13.14,17.74,348.5
"2016-05-23 00:24:00",1657419,5.357,25.06,1.237,0.27,18.94,106.9024,16.95,17.89,45.46,0,110.7,13.14,17.76,347.1
"2016-05-23 00:24:30",1657420,5.256,25.82,1.094,0.233,18.96,106.9246,17,17.92,45.57,0,110.7,13.14,17.81,347.8
"2016-05-23 00:25:00",1657421,5.374,25.53,1.318,0.437,19.04,106.928,17.01,17.94,45.6,0,110.7,13.14,17.82,347.5
"2016-05-23 00:25:30",1657422,4.795,23.56,1.633,0.239,19.14,106.9413,17.04,17.98,44.95,0,110.7,13.14,17.86,345.6
"2016-05-23 00:26:00",1657423,4.831,22.4,1.4,0.356,19.08,106.9607,17.09,18,43.71,0,110.7,13.14,17.91,344.4
"2016-05-23 00:26:30",1657424,5.32,23.45,1.199,0.332,19.07,106.9618,17.1,18.03,44.53,0,110.7,13.14,17.91,345.5
"2016-05-23 00:27:00",1657425,4.383,21.28,2.595,0.826,19.26,106.9722,17.12,18.06,44.45,0,110.7,13.14,17.94,343.3
"2016-05-23 00:27:30",1657426,2.598,14.54,3.486,0.407,19.45,106.9936,17.18,18.07,42.87,0,110.7,13.14,17.99,336.5
"2016-05-23 00:28:00",1657427,2.428,13.81,2.586,0.18,19.52,106.9956,17.18,18.1,41.99,0,110.7,13.14,18.00,335.8
"2016-05-23 00:28:30",1657428,2.444,9.94,3.323,0.153,19.59,107.0038,17.2,18.13,41.81,0,110.7,13.14,18.02,331.9
"2016-05-23 00:29:00",1657429,2.683,7.972,5.103,0.341,19.63,107.0246,17.26,18.16,41.68,0,110.8,13.14,18.07,330.0
"2016-05-23 00:29:30",1657430,2.614,13.56,2.693,0.198,19.59,107.0294,17.27,18.18,41.6,0,110.8,13.13,18.08,335.6
"2016-05-23 00:30:00",1657431,3.534,19.68,2.488,0.501,19.46,107.0294,17.27,18.21,41.79,0,110.8,13.13,18.08,341.7
"2016-05-23 00:30:30",1657432,4.193,21.59,1.95,0.425,19.49,107.0412,17.3,18.22,41.87,0,110.8,13.13,18.11,343.6
"2016-05-23 00:31:00",1657433,5.084,23.09,1.202,0.571,19.43,107.0564,17.34,18.25,41.9,0,110.8,13.13,18.15,345.1
"2016-05-23 00:31:30",1657434,5.457,24.06,0.805,0.225,19.47,107.0629,17.36,18.28,41.87,0,110.8,13.13,18.17,346.1
"2016-05-23 00:32:00",1657435,5.32,23.92,0.78,0.276,19.55,107.0632,17.36,18.28,41.76,0,110.8,13.13,18.17,345.9
"2016-05-23 00:32:30",1657436,5.612,24.12,0.88,0.214,19.61,107.0632,17.36,18.29,41.57,0,110.8,13.13,18.17,346.1
"2016-05-23 00:33:00",1657437,5.686,24.24,0.739,0.206,19.62,107.0632,17.36,18.31,41.23,0,110.8,13.13,18.17,346.2
"2016-05-23 00:33:30",1657438,5.47,25.71,1.003,0.209,19.6,107.0632,17.36,18.31,41.53,0,110.8,13.13,18.17,347.7
"2016-05-23 00:34:00",1657439,5.484,24.5,1.039,0.142,19.6,107.0632,17.36,18.33,41.79,0,110.8,13.13,18.17,346.5
"2016-05-23 00:34:30",1657440,5.356,24.93,1.26,0.095,19.68,107.0632,17.36,18.33,41.11,0,110.8,13.13,18.17,346.9
"2016-05-23 00:35:00",1657441,5.185,25.3,0.983,0.122,19.68,107.0632,17.36,18.32,41.27,0,110.8,13.13,18.17,347.3
"2016-05-23 00:35:30",1657442,5.291,25.52,1.118,0.089,19.68,107.0632,17.36,18.33,40.8,0,110.8,13.13,18.17,347.5
"2016-05-23 00:36:00",1657443,5.227,24.8,1.374,0.195,19.72,107.0629,17.36,18.34,40.99,0,110.8,13.14,18.17,346.8
"2016-05-23 00:36:30",1657444,5.027,23.97,3.052,0.497,19.69,107.0604,17.35,18.33,42.39,0,110.8,13.14,18.16,346.0
"2016-05-23 00:37:00",1657445,5.414,24.01,1.303,0.427,19.76,107.0539,17.33,18.32,43.06,0,110.8,13.14,18.15,346.0
"2016-05-23 00:37:30",1657446,5.248,24.08,1.879,0.278,19.71,107.0345,17.28,18.33,44.08,0,110.8,13.14,18.10,346.1
"2016-05-23 00:38:00",1657447,5.166,23.63,0.929,0.198,19.78,107.0294,17.27,18.3,42.02,0,110.8,13.14,18.08,345.6
"2016-05-23 00:38:30",1657448,4.787,21.86,2.972,0.779,19.73,107.0294,17.27,18.3,42.77,0,110.8,13.14,18.08,343.9
"2016-05-23 00:39:00",1657449,4.226,21.77,1.206,0.162,19.83,107.0288,17.27,18.29,41.97,0,110.8,13.14,18.08,343.8
"2016-05-23 00:39:30",1657450,4.369,21.03,1.837,0.31,19.76,107.024,17.26,18.27,40.93,0,110.8,13.14,18.07,343.0
"2016-05-23 00:40:00",1657451,4.435,22.59,1.163,0.404,19.78,107.0117,17.23,18.26,40.97,0,110.8,13.14,18.04,344.6
"2016-05-23 00:40:30",1657452,4.341,21.23,2.265,0.462,19.79,106.9956,17.18,18.25,40.82,0,110.8,13.14,18.00,343.2
"2016-05-23 00:41:00",1657453,4.354,21.46,1.827,0.3,19.77,106.9956,17.18,18.24,40.67,0,110.7,13.14,18.00,343.5
"2016-05-23 00:41:30",1657454,4.21,21.39,1.846,0.263,19.75,106.9956,17.18,18.23,40.61,0,110.8,13.14,18.00,343.4
"2016-05-23 00:42:00",1657455,4.148,21.69,2.02,0.229,19.84,106.9953,17.18,18.2,40.79,0,110.8,13.14,18.00,343.7
"2016-05-23 00:42:30",1657456,3.834,18.87,2.433,0.369,19.8,106.9838,17.15,18.2,41.04,0,110.8,13.14,17.97,340.9
"2016-05-23 00:43:00",1657457,3.574,19.05,2.437,0.483,19.8,106.9691,17.12,18.19,41.29,0,110.8,13.14,17.93,341.0
"2016-05-23 00:43:30",1657458,3.092,15.76,3.001,0.45,19.86,106.9618,17.1,18.19,41.59,0,110.8,13.14,17.91,337.8
"2016-05-23 00:44:00",1657459,3.812,18.86,2.474,0.35,19.78,106.9618,17.1,18.16,41.44,0,110.8,13.14,17.91,340.9
"2016-05-23 00:44:30",1657460,4.142,20.03,2.002,0.313,19.76,106.9618,17.1,18.16,41.4,0,110.7,13.14,17.91,342.0
"2016-05-23 00:45:00",1657461,4.098,20.29,1.77,0.373,19.86,106.9618,17.1,18.14,41.72,0,110.7,13.14,17.91,342.3
"2016-05-23 00:45:30",1657462,4.744,22.03,2.312,0.608,19.82,106.959,17.09,18.15,41.85,0,110.7,13.14,17.90,344.0
"2016-05-23 00:46:00",1657463,4.802,22.17,1.334,0.477,19.82,106.9483,17.06,18.13,41.71,0,110.7,13.14,17.87,344.2
"2016-05-23 00:46:30",1657464,4.676,21.91,1.096,0.276,19.9,106.9325,17.02,18.13,42.01,0,110.8,13.14,17.83,343.9
"2016-05-23 00:47:00",1657465,5.08,22.66,0.795,0.288,19.86,106.928,17.01,18.09,41.97,0,110.7,13.14,17.82,344.7
"2016-05-23 00:47:30",1657466,5.038,22.46,1.336,0.345,19.86,106.928,17.01,18.1,41.87,0,110.7,13.14,17.82,344.5
"2016-05-23 00:48:00",1657467,4.897,22.49,0.961,0.216,19.87,106.928,17.01,18.1,42.1,0,110.7,13.14,17.82,344.5
"2016-05-23 00:48:30",1657468,5.167,22.88,1.268,0.435,19.89,106.928,17.01,18.08,42.02,0,110.7,13.14,17.82,344.9
"2016-05-23 00:49:00",1657469,5.242,22.41,1.309,0.264,19.9,106.928,17.01,18.06,42.04,0,110.7,13.14,17.82,344.4
"2016-05-23 00:49:30",1657470,5.49,22.82,1.113,0.291,19.88,106.9249,17,18.06,41.9,0,110.7,13.14,17.81,344.8
"2016-05-23 00:50:00",1657471,5.123,22.07,1.748,0.413,19.86,106.9179,16.98,18.05,41.97,0,110.7,13.14,17.80,344.1
"2016-05-23 00:50:30",1657472,5.257,21.83,1.455,0.407,19.89,106.9117,16.97,18.03,42.49,0,110.7,13.14,17.78,343.8
"2016-05-23 00:51:00",1657473,4.908,20.8,1.57,0.461,19.85,106.9052,16.95,18.04,42.83,0,110.7,13.14,17.76,342.8
"2016-05-23 00:51:30",1657474,4.088,17.58,3.26,0.727,19.87,106.8948,16.93,18.03,43.09,0,110.7,13.14,17.74,339.6
"2016-05-23 00:52:00",1657475,4.449,19.05,2.09,0.605,19.87,106.8942,16.92,18.02,42.54,0,110.7,13.14,17.74,341.0
"2016-05-23 00:52:30",1657476,4.804,20.88,1.953,0.526,19.88,106.8942,16.92,18.01,42.3,0,110.7,13.14,17.74,342.9
"2016-05-23 00:53:00",1657477,5.922,23.8,1.166,0.247,19.82,106.8942,16.92,17.99,42.41,0,110.7,13.14,17.74,345.8
"2016-05-23 00:53:30",1657478,5.825,22.79,1.031,0.294,19.87,106.8942,16.92,18,42.41,0,110.7,13.14,17.74,344.8
"2016-05-23 00:54:00",1657479,5.788,22.26,1.564,0.482,19.79,106.8937,16.92,17.97,42.25,0,110.7,13.14,17.73,344.3
"2016-05-23 00:54:30",1657480,5.478,22.05,0.969,0.242,19.78,106.8889,16.91,17.97,42.27,0,110.7,13.14,17.72,344.0
"2016-05-23 00:55:00",1657481,5.886,23.15,0.837,0.223,19.74,106.8864,16.9,17.96,42.09,0,110.7,13.15,17.72,345.1
"2016-05-23 00:55:30",1657482,6.025,22.68,1.006,0.274,19.78,106.8828,16.89,17.95,41.76,0,110.7,13.15,17.71,344.7
"2016-05-23 00:56:00",1657483,6.2,23.87,0.766,0.203,19.68,106.88,16.89,17.93,41.57,0,110.7,13.14,17.70,345.9
"2016-05-23 00:56:30",1657484,6.22,23.84,0.784,0.205,19.68,106.8781,16.88,17.94,41.76,0,110.7,13.15,17.69,345.8
"2016-05-23 00:57:00",1657485,5.956,25.06,1.661,0.292,19.58,106.8727,16.87,17.93,42.24,0,110.7,13.15,17.68,347.1
"2016-05-23 00:57:30",1657486,5.906,24.27,1.716,0.34,19.47,106.8744,16.87,17.95,42.95,0,110.7,13.15,17.68,346.3
"2016-05-23 00:58:00",1657487,5.685,24.4,1.433,0.273,19.43,106.8772,16.88,17.92,43.07,0,110.7,13.14,17.69,346.4
"2016-05-23 00:58:30",1657488,5.367,24.15,0.94,0.165,19.35,106.8823,16.89,17.93,43.19,0,110.7,13.15,17.70,346.1
"2016-05-23 00:59:00",1657489,5.833,23.89,0.959,0.314,19.27,106.8867,16.9,17.93,43.93,0,110.7,13.15,17.72,345.9
"2016-05-23 00:59:30",1657490,5.734,24.82,1.642,0.459,19.29,106.8907,16.92,17.94,44.19,0,110.7,13.14,17.73,346.8
"2016-05-23 01:00:00",1657491,5.476,23.86,1.32,0.427,19.36,106.8951,16.93,17.93,44.43,0,110.7,13.15,17.74,345.9
"2016-05-23 01:00:30",1657492,5.064,23.29,0.942,0.258,19.39,106.8942,16.92,17.95,44.19,0,110.7,13.14,17.74,345.3
"2016-05-23 01:01:00",1657493,5.447,24.29,1.128,0.197,19.42,106.8945,16.92,17.94,44.09,0,110.7,13.14,17.74,346.3
"2016-05-23 01:01:30",1657494,5.197,24.55,1.163,0.275,19.53,106.9024,16.95,17.96,43.8,0,110.7,13.14,17.76,346.5
"2016-05-23 01:02:00",1657495,4.965,23.25,1.204,0.414,19.57,106.9135,16.97,17.97,43.87,0,110.7,13.14,17.78,345.2
"2016-05-23 01:02:30",1657496,4.94,22.73,1.355,0.335,19.53,106.9218,16.99,17.98,44.02,0,110.7,13.14,17.81,344.7
"2016-05-23 01:03:00",1657497,4.046,20.14,1.912,0.527,19.53,106.928,17.01,18,44.11,0,110.7,13.14,17.82,342.1
"2016-05-23 01:03:30",1657498,3.868,20.25,1.645,0.325,19.5,106.928,17.01,18.02,44.2,0,110.7,13.14,17.82,342.2
"2016-05-23 01:04:00",1657499,3.325,17.56,2.252,0.345,19.55,106.9283,17.01,18.02,44.05,0,110.7,13.14,17.82,339.6
"2016-05-23 01:04:30",1657500,3.747,18.79,1.841,0.407,19.49,106.9351,17.03,18.04,43.68,0,110.7,13.13,17.84,340.8
"2016-05-23 01:05:00",1657501,4.07,19.19,1.573,0.32,19.5,106.9542,17.08,18.06,43.63,0,110.7,13.14,17.89,341.2
"2016-05-23 01:05:30",1657502,4.594,21.51,1.168,0.236,19.54,106.9618,17.1,18.06,43.47,0,110.7,13.14,17.91,343.5
"2016-05-23 01:06:00",1657503,4.728,21.68,1.59,0.246,19.64,106.9618,17.1,18.09,43.47,0,110.7,13.14,17.91,343.7
"2016-05-23 01:06:30",1657504,4.861,21.5,1.334,0.336,19.66,106.9621,17.1,18.1,42.98,0,110.7,13.13,17.91,343.5
"2016-05-23 01:07:00",1657505,4.762,19.97,1.321,0.343,19.49,106.9728,17.13,18.12,43.12,0,110.7,13.13,17.94,342.0
"2016-05-23 01:07:30",1657506,4.875,19.1,1.83,0.371,19.44,106.9925,17.18,18.14,43.84,0,110.7,13.13,17.99,341.1
"2016-05-23 01:08:00",1657507,4.966,19.64,2.144,0.614,19.45,106.9956,17.18,18.15,44.45,0,110.7,13.13,18.00,341.6
"2016-05-23 01:08:30",1657508,5.342,20.6,1.716,0.688,19.41,106.9956,17.18,18.17,44.6,0,110.7,13.14,18.00,342.6
"2016-05-23 01:09:00",1657509,5.197,21.46,2.077,0.545,19.44,107.001,17.2,18.21,44.9,0,110.7,13.14,18.01,343.5
"2016-05-23 01:09:30",1657510,5.055,21.01,1.366,0.463,19.53,107.017,17.24,18.2,44.95,0,110.7,13.14,18.05,343.0
"2016-05-23 01:10:00",1657511,5.116,21.85,1.505,0.482,19.61,107.0274,17.27,18.21,45.11,0,110.7,13.14,18.08,343.9
"2016-05-23 01:10:30",1657512,5.388,22.7,1.373,0.285,19.7,107.0294,17.27,18.24,45.22,0,110.7,13.14,18.08,344.7
"2016-05-23 01:11:00",1657513,5.696,22.3,1.411,0.298,19.74,107.0294,17.27,18.26,44.59,0,110.7,13.14,18.08,344.3
"2016-05-23 01:11:30",1657514,5.969,22,1.437,0.333,19.74,107.0294,17.27,18.27,44.61,0,110.7,13.14,18.08,344.0
"2016-05-23 01:12:00",1657515,5.747,21.52,1.727,0.477,19.82,107.0294,17.27,18.28,44.76,0,110.7,13.14,18.08,343.5
"2016-05-23 01:12:30",1657516,5.622,20.19,1.551,0.387,19.81,107.0294,17.27,18.29,44.79,0,110.7,13.14,18.08,342.2
"2016-05-23 01:13:00",1657517,6.256,21.89,1.894,0.754,19.81,107.0297,17.27,18.29,44.66,0,110.7,13.14,18.08,343.9
"2016-05-23 01:13:30",1657518,6.641,23.13,1.195,0.615,19.8,107.0316,17.28,18.31,44.55,0,110.7,13.14,18.09,345.1
"2016-05-23 01:14:00",1657519,5.817,20.56,1.883,0.493,19.86,107.0314,17.28,18.31,44.44,0,110.7,13.14,18.09,342.6
"2016-05-23 01:14:30",1657520,5.866,20.97,1.775,0.514,19.84,107.0294,17.27,18.31,44.08,0,110.7,13.14,18.08,343.0
"2016-05-23 01:15:00",1657521,5.313,19.72,1.616,0.447,19.82,107.0294,17.27,18.3,44.38,0,110.7,13.14,18.08,341.7
"2016-05-23 01:15:30",1657522,5.583,19.36,1.778,0.332,19.86,107.0294,17.27,18.31,44.31,0,110.7,13.14,18.08,341.4
"2016-05-23 01:16:00",1657523,4.637,15.9,1.426,0.275,19.85,107.0283,17.27,18.29,43.95,0,110.7,13.14,18.08,337.9
"2016-05-23 01:16:30",1657524,4.896,18.2,1.796,0.365,19.81,107.0198,17.25,18.29,43.39,0,110.7,13.14,18.06,340.2
"2016-05-23 01:17:00",1657525,5.47,17.01,2.876,0.943,19.92,106.9981,17.19,18.27,42.73,0,110.7,13.14,18.00,339.0
"2016-05-23 01:17:30",1657526,3.901,11.97,4.916,0.479,19.84,106.9956,17.18,18.26,43.32,0,110.7,13.14,18.00,334.0
"2016-05-23 01:18:00",1657527,5.954,19.39,3.681,1.001,19.83,106.9956,17.18,18.25,43.68,0,110.7,13.14,18.00,341.4
"2016-05-23 01:18:30",1657528,6.736,19.89,2.911,0.889,19.83,106.9934,17.18,18.25,42.1,0,110.7,13.14,17.99,341.9
"2016-05-23 01:19:00",1657529,4.719,16.68,3.121,0.601,19.85,106.9748,17.13,18.22,41.94,0,110.7,13.14,17.94,338.7
"2016-05-23 01:19:30",1657530,6.061,20.44,2.478,0.842,19.82,106.9627,17.1,18.2,42.28,0,110.7,13.14,17.91,342.4
"2016-05-23 01:20:00",1657531,7.112,21.78,1.83,0.997,19.96,106.9618,17.1,18.2,42.17,0,110.7,13.14,17.91,343.8
"2016-05-23 01:20:30",1657532,7.49,22.28,1.681,0.778,19.9,106.9618,17.1,18.18,41.57,0,110.7,13.14,17.91,344.3
"2016-05-23 01:21:00",1657533,7.921,23.07,1.486,0.687,19.91,106.9607,17.09,18.16,41.75,0,110.7,13.14,17.91,345.1
"2016-05-23 01:21:30",1657534,8.44,24.05,1.326,0.616,19.95,106.9545,17.08,18.15,41.95,0,110.7,13.14,17.89,346.0
"2016-05-23 01:22:00",1657535,8.8,25.02,0.967,0.38,19.93,106.9359,17.03,18.14,42.02,0,110.7,13.14,17.84,347.0
"2016-05-23 01:22:30",1657536,8.65,23.79,1.005,0.398,19.93,106.9298,17.02,18.12,42.15,0,110.7,13.13,17.83,345.8
"2016-05-23 01:23:00",1657537,8.34,23.7,0.812,0.423,19.91,106.9283,17.01,18.11,42.73,0,110.7,13.14,17.82,345.7
"2016-05-23 01:23:30",1657538,7.894,23.14,1.128,0.279,19.91,106.9283,17.01,18.08,43.03,0,110.7,13.14,17.82,345.1
"2016-05-23 01:24:00",1657539,7.787,22.88,1.717,0.775,19.87,106.9278,17.01,18.08,42.72,0,110.7,13.14,17.82,344.9
"2016-05-23 01:24:30",1657540,6.957,23.81,1.547,0.455,19.81,106.9182,16.99,18.06,43.05,0,110.7,13.14,17.80,345.8
"2016-05-23 01:25:00",1657541,7.925,24.88,1.819,0.685,19.76,106.912,16.97,18.04,43.18,0,110.7,13.13,17.78,346.9
"2016-05-23 01:25:30",1657542,8.07,22.99,1.57,0.366,19.79,106.9008,16.94,18.06,43.4,0,110.7,13.14,17.75,345.0
"2016-05-23 01:26:00",1657543,8.15,24.02,0.929,0.219,19.84,106.8957,16.93,18.02,42.77,0,110.7,13.14,17.74,346.0
"2016-05-23 01:26:30",1657544,7.78,23.97,1.35,0.458,19.66,106.8972,16.93,18.01,43.35,0,110.7,13.14,17.74,346.0
"2016-05-23 01:27:00",1657545,8.29,24.78,2.531,1.1,19.85,106.896,16.93,18.02,43.47,0,110.7,13.14,17.74,346.8
"2016-05-23 01:27:30",1657546,9.56,24.48,0.836,0.529,20.02,106.8996,16.94,17.98,42.66,0,110.7,13.14,17.75,346.5
"2016-05-23 01:28:00",1657547,9.65,25.05,1.125,0.506,20.02,106.8981,16.93,17.98,42.18,0,110.7,13.14,17.75,347.0
"2016-05-23 01:28:30",1657548,8.43,23.95,2.031,0.948,19.86,106.8987,16.94,17.99,42.76,0,110.7,13.14,17.75,346.0
"2016-05-23 01:29:00",1657549,8.4,24.42,1.711,0.534,19.79,106.9011,16.94,17.98,43.39,0,110.7,13.14,17.75,346.4
"2016-05-23 01:29:30",1657550,9.37,24.19,1.126,0.626,19.97,106.9005,16.94,17.98,43.21,0,110.7,13.14,17.75,346.2
"2016-05-23 01:30:00",1657551,8.39,23.81,1.746,1.035,19.88,106.8999,16.94,17.99,42.86,0,110.7,13.14,17.75,345.8
"2016-05-23 01:30:30",1657552,9.36,24.12,1.011,0.467,19.91,106.9023,16.94,17.98,43.3,0,110.7,13.14,17.76,346.1
"2016-05-23 01:31:00",1657553,9.59,24.08,0.701,0.311,19.96,106.906,16.95,17.98,42.95,0,110.7,13.14,17.77,346.1
"2016-05-23 01:31:30",1657554,9.1,25.22,1.509,0.485,19.82,106.915,16.98,17.99,43.77,0,110.7,13.14,17.79,347.2
"2016-05-23 01:32:00",1657555,8.87,25.03,1.625,0.549,19.81,106.9244,17,17.99,43.79,0,110.7,13.14,17.81,347.0
"2016-05-23 01:32:30",1657556,8.38,25,1.928,0.511,19.86,106.9285,17.01,18,43.89,0,110.7,13.14,17.82,347.0
"2016-05-23 01:33:00",1657557,7.631,23.47,1.363,0.499,19.82,106.9352,17.03,18.01,44.01,0,110.7,13.14,17.84,345.5
"2016-05-23 01:33:30",1657558,7.856,23.52,1.296,0.549,19.87,106.9377,17.04,18.03,44.11,0,110.7,13.14,17.85,345.5
"2016-05-23 01:34:00",1657559,7.605,22.81,2.68,1.226,19.86,106.9382,17.04,18.01,44.28,0,110.7,13.14,17.85,344.8
"2016-05-23 01:34:30",1657560,7.745,23.13,1.784,0.593,19.84,106.9367,17.03,18.01,44.21,0,110.7,13.14,17.84,345.1
"2016-05-23 01:35:00",1657561,7.982,23.52,1.626,0.781,19.85,106.9373,17.03,18.02,44.31,0,110.7,13.14,17.85,345.5
"2016-05-23 01:35:30",1657562,8.07,23.53,0.79,0.425,19.84,106.9376,17.04,18.04,44.43,0,110.7,13.14,17.85,345.5
"2016-05-23 01:36:00",1657563,7.765,22.96,1.584,0.719,19.88,106.9382,17.04,18.04,44.63,0,110.7,13.14,17.85,345.0
"2016-05-23 01:36:30",1657564,7.571,21.76,2.819,1.389,19.95,106.9373,17.03,18.05,44.67,0,110.7,13.14,17.85,343.8
"2016-05-23 01:37:00",1657565,7.944,23.16,2.413,1.04,19.89,106.9373,17.03,18.05,44.58,0,110.7,13.14,17.85,345.2
"2016-05-23 01:37:30",1657566,8.01,23.02,1.134,0.465,19.91,106.9376,17.04,18.06,44.69,0,110.7,13.14,17.85,345.0
"2016-05-23 01:38:00",1657567,6.64,21.67,2.105,0.957,19.9,106.9385,17.04,18.06,44.84,0,110.7,13.14,17.85,343.7
"2016-05-23 01:38:30",1657568,8.31,25,1.422,0.766,19.93,106.9431,17.05,18.06,44.68,0,110.7,13.14,17.86,347.0
"2016-05-23 01:39:00",1657569,7.723,24.71,1.856,0.336,19.9,106.945,17.05,18.07,44.8,0,110.7,13.14,17.87,346.7
"2016-05-23 01:39:30",1657570,7.527,26.04,2.476,0.49,19.92,106.9493,17.07,18.08,44.68,0,110.7,13.13,17.88,348.0
"2016-05-23 01:40:00",1657571,6.772,22.36,1.343,0.577,19.88,106.9509,17.07,18.08,44.97,0,110.7,13.14,17.88,344.4
"2016-05-23 01:40:30",1657572,7.267,24.84,2.807,0.678,19.84,106.9568,17.08,18.07,45.51,0,110.7,13.13,17.90,346.8
"2016-05-23 01:41:00",1657573,8.39,24.55,1.677,0.481,20.02,106.952,17.07,18.09,44.76,0,110.7,13.13,17.88,346.5
"2016-05-23 01:41:30",1657574,8.19,27.1,1.585,0.558,20.09,106.9539,17.08,18.09,44.5,0,110.7,13.13,17.89,349.1
"2016-05-23 01:42:00",1657575,8.9,24.68,1.879,0.718,20.03,106.9499,17.07,18.09,44.42,0,110.7,13.13,17.88,346.7
"2016-05-23 01:42:30",1657576,8.22,23.52,1.175,0.532,20.04,106.945,17.05,18.08,44.68,0,110.7,13.13,17.87,345.5
"2016-05-23 01:43:00",1657577,8.66,25.43,1.595,0.435,20.01,106.944,17.05,18.08,44.76,0,110.7,13.14,17.86,347.4
"2016-05-23 01:43:30",1657578,8.4,25.83,1.654,0.289,20.05,106.9437,17.05,18.09,44.87,0,110.7,13.14,17.86,347.8
"2016-05-23 01:44:00",1657579,8.62,25.97,1.186,0.417,20.01,106.9432,17.05,18.09,44.97,0,110.7,13.14,17.86,348.0
"2016-05-23 01:44:30",1657580,8.9,25.02,1.165,0.291,20.06,106.9429,17.05,18.09,45.07,0,110.7,13.14,17.86,347.0
"2016-05-23 01:45:00",1657581,8.12,25.61,2.142,0.426,20.01,106.943,17.05,18.08,45.15,0,110.7,13.14,17.86,347.6
"2016-05-23 01:45:30",1657582,8.52,25.15,1.17,0.439,20.06,106.9409,17.04,18.08,45.44,0,110.7,13.14,17.86,347.1
"2016-05-23 01:46:00",1657583,8.66,24.78,1.169,0.44,20.05,106.9413,17.04,18.06,45.08,0,110.7,13.14,17.86,346.8
"2016-05-23 01:46:30",1657584,8.45,26.91,1.418,0.549,20.09,106.9437,17.05,18.07,45.12,0,110.7,13.14,17.86,348.9